Weather in Lineynoye

Russia / Astrakhan Oblast     46°15′11″N   47°24′51″E
temp.,
°C
wind,
m/s
gust,
m/s
humid.,
%
clouds,
%
prec.,
mm/h
press.,
hPa
HPBL,
m
5 august, thu
thu501:00+30nne3434100 0.0 101152
04:00+28n4748100 0.0 1011152
07:00+28nne6105229 0.0 1012311
10:00+31ne784277 0.0 1012637
13:00+35nne66325 0.0 10121299
16:00+36n7528100 0.0 10112030
19:00+31nne5837100 0.8 1012444
22:00+27n3354100 1.3 101247
6 august, fri
fri601:00+27nne6123237 0.0 1012270
04:00+26ne5103611 0.0 1012204
07:00+26ne510399 0.0 1012240
10:00+31ne66305 0.0 1012778
13:00+34ne44251 0.0 10111202
16:00+35ne44230 0.0 10091669
19:00+34e66280 0.0 10091202
22:00+28ese45410 0.0 101077
7 august, sat
sat701:00+27e46410 0.0 101092
04:00+27e613340 0.0 1010273
07:00+27ene815300 0.0 1010392
10:00+33ese911265 0.0 1009819
13:00+36ese89232 0.0 10081274
16:00+36ese892312 0.0 10081272
19:00+34ese911250 0.0 1008634
22:00+30e714300 0.0 1008285
8 august, sun
sun801:00+28e7153532 0.0 1008288
04:00+28e7164192 0.0 1008282
07:00+28e8164862 0.0 1008332
10:00+35se91326100 0.0 1008896
13:00+36sse9112639 0.0 1008841
16:00+36sse9112474 0.0 1008943
19:00+34se811295 0.0 1008521
22:00+28sse49525 0.0 1009176
9 august, mon
mon901:00+27sse466749 0.0 1009104
04:00+27sse226537 0.0 100914
07:00+28w225997 0.0 100943
10:00+33nnw35335 0.0 1010501
13:00+36nw33285 0.0 10091626
16:00+36sw22293 0.0 10092127
19:00+35sw33324 0.3 1008535
22:00+32sw344019 0.9 100950